Year,Month,Day,Hour,Minute,Value (Times are PST for temperature in C)
2009,07,12,00,00,20.30
2009,07,12,00,01,20.30
2009,07,12,00,02,20.30
2009,07,12,00,03,20.30
2009,07,12,00,04,20.20
2009,07,12,00,05,20.20
2009,07,12,00,06,20.20
2009,07,12,00,07,20.20
2009,07,12,00,08,20.30
2009,07,12,00,09,20.30
2009,07,12,00,10,20.30
2009,07,12,00,11,20.30
2009,07,12,00,12,20.30
2009,07,12,00,13,20.30
2009,07,12,00,14,20.30
2009,07,12,00,15,20.30
2009,07,12,00,16,20.20
2009,07,12,00,17,20.10
2009,07,12,00,18,20.00
2009,07,12,00,19,19.90
2009,07,12,00,20,19.90
2009,07,12,00,21,19.80
2009,07,12,00,22,19.70
2009,07,12,00,23,19.70
2009,07,12,00,24,19.60
2009,07,12,00,25,19.60
2009,07,12,00,26,19.60
2009,07,12,00,27,19.50
2009,07,12,00,28,19.50
2009,07,12,00,29,19.50
2009,07,12,00,30,19.60
2009,07,12,00,31,19.60
2009,07,12,00,32,19.60
2009,07,12,00,33,19.70
2009,07,12,00,34,19.70
2009,07,12,00,35,19.70
2009,07,12,00,36,19.70
2009,07,12,00,37,19.70
2009,07,12,00,38,19.70
2009,07,12,00,39,19.70
2009,07,12,00,40,19.80
2009,07,12,00,41,19.80
2009,07,12,00,42,19.80
2009,07,12,00,43,19.90
2009,07,12,00,44,19.90
2009,07,12,00,45,19.90
2009,07,12,00,46,19.80
2009,07,12,00,47,19.80
2009,07,12,00,48,19.70
2009,07,12,00,49,19.70
2009,07,12,00,50,19.60
2009,07,12,00,51,19.40
2009,07,12,00,52,19.30
2009,07,12,00,53,19.30
2009,07,12,00,54,19.20
2009,07,12,00,55,19.10
2009,07,12,00,56,19.10
2009,07,12,00,57,19.10
2009,07,12,00,58,19.10
2009,07,12,00,59,19.10
2009,07,12,01,00,19.00
2009,07,12,01,01,18.90
2009,07,12,01,02,18.90
2009,07,12,01,03,18.90
2009,07,12,01,04,18.90
2009,07,12,01,05,18.90
2009,07,12,01,06,18.80
2009,07,12,01,07,18.70
2009,07,12,01,08,18.60
2009,07,12,01,09,18.50
2009,07,12,01,10,18.50
2009,07,12,01,11,18.40
2009,07,12,01,12,18.30
2009,07,12,01,13,18.30
2009,07,12,01,14,18.20
2009,07,12,01,15,18.20
2009,07,12,01,16,18.20
2009,07,12,01,17,18.20
2009,07,12,01,18,18.10
2009,07,12,01,19,18.10
2009,07,12,01,20,18.10
2009,07,12,01,21,17.90
2009,07,12,01,22,17.90
2009,07,12,01,23,17.90
2009,07,12,01,24,18.10
2009,07,12,01,25,18.10
2009,07,12,01,26,18.10
2009,07,12,01,27,18.10
2009,07,12,01,28,18.20
2009,07,12,01,29,18.20
2009,07,12,01,30,18.20
2009,07,12,01,31,18.20
2009,07,12,01,32,18.20
2009,07,12,01,33,18.20
2009,07,12,01,34,18.20
2009,07,12,01,35,18.20
2009,07,12,01,36,18.20
2009,07,12,01,37,18.20
2009,07,12,01,38,18.20
2009,07,12,01,39,18.20
2009,07,12,01,40,18.30
2009,07,12,01,41,18.30
2009,07,12,01,42,18.30
2009,07,12,01,43,18.40
2009,07,12,01,44,18.40
2009,07,12,01,45,18.50
2009,07,12,01,46,18.60
2009,07,12,01,47,18.70
2009,07,12,01,48,18.80
2009,07,12,01,49,18.90
2009,07,12,01,50,18.90
2009,07,12,01,51,18.90
2009,07,12,01,52,18.90
2009,07,12,01,53,18.90
2009,07,12,01,54,18.90
2009,07,12,01,55,18.90
2009,07,12,01,56,18.90
2009,07,12,01,57,19.00
2009,07,12,01,58,19.10
2009,07,12,01,59,18.90
2009,07,12,02,00,18.90
2009,07,12,02,01,18.90
2009,07,12,02,02,18.90
2009,07,12,02,03,18.90
2009,07,12,02,04,18.80
2009,07,12,02,05,18.80
2009,07,12,02,06,18.70
2009,07,12,02,07,18.70
2009,07,12,02,08,18.70
2009,07,12,02,09,18.60
2009,07,12,02,10,18.60
2009,07,12,02,11,18.60
2009,07,12,02,12,18.60
2009,07,12,02,13,18.60
2009,07,12,02,14,18.60
2009,07,12,02,15,18.60
2009,07,12,02,16,18.60
2009,07,12,02,17,18.60
2009,07,12,02,18,18.60
2009,07,12,02,19,18.60
2009,07,12,02,20,18.70
2009,07,12,02,21,18.70
2009,07,12,02,22,18.70
2009,07,12,02,23,18.70
2009,07,12,02,24,18.70
2009,07,12,02,25,18.70
2009,07,12,02,26,18.70
2009,07,12,02,27,18.60
2009,07,12,02,28,18.60
2009,07,12,02,29,18.50
2009,07,12,02,30,18.40
2009,07,12,02,31,18.30
2009,07,12,02,32,18.10
2009,07,12,02,33,18.00
2009,07,12,02,34,17.90
2009,07,12,02,35,17.80
2009,07,12,02,36,17.80
2009,07,12,02,37,17.70
2009,07,12,02,38,17.60
2009,07,12,02,39,17.60
2009,07,12,02,40,17.50
2009,07,12,02,41,17.50
2009,07,12,02,42,17.50
2009,07,12,02,43,17.40
2009,07,12,02,44,17.30
2009,07,12,02,45,17.30
2009,07,12,02,46,17.30
2009,07,12,02,47,17.20
2009,07,12,02,48,17.20
2009,07,12,02,49,17.20
2009,07,12,02,50,17.10
2009,07,12,02,51,17.10
2009,07,12,02,52,17.10
2009,07,12,02,53,17.00
2009,07,12,02,54,17.00
2009,07,12,02,55,17.00
2009,07,12,02,56,17.00
2009,07,12,02,57,17.00
2009,07,12,02,58,17.00
2009,07,12,02,59,17.00
2009,07,12,03,00,17.00
2009,07,12,03,01,17.00
2009,07,12,03,02,17.00
2009,07,12,03,03,17.10
2009,07,12,03,04,17.10
2009,07,12,03,05,17.10
2009,07,12,03,06,17.10
2009,07,12,03,07,17.20
2009,07,12,03,08,17.20
2009,07,12,03,09,17.20
2009,07,12,03,10,17.20
2009,07,12,03,11,17.20
2009,07,12,03,12,17.20
2009,07,12,03,13,17.20
2009,07,12,03,14,17.30
2009,07,12,03,15,17.30
2009,07,12,03,16,17.30
2009,07,12,03,17,17.30
2009,07,12,03,18,17.30
2009,07,12,03,19,17.30
2009,07,12,03,20,17.30
2009,07,12,03,21,17.30
2009,07,12,03,22,17.30
2009,07,12,03,23,17.30
2009,07,12,03,24,17.40
2009,07,12,03,25,17.40
2009,07,12,03,26,17.40
2009,07,12,03,27,17.40
2009,07,12,03,28,17.40
2009,07,12,03,29,17.40
2009,07,12,03,30,17.40
2009,07,12,03,31,17.40
2009,07,12,03,32,17.40
2009,07,12,03,33,17.40
2009,07,12,03,34,17.40
2009,07,12,03,35,17.30
2009,07,12,03,36,17.30
2009,07,12,03,37,17.30
2009,07,12,03,38,17.30
2009,07,12,03,39,17.30
2009,07,12,03,40,17.30
2009,07,12,03,41,17.30
2009,07,12,03,42,17.30
2009,07,12,03,43,17.30
2009,07,12,03,44,17.30
2009,07,12,03,45,17.20
2009,07,12,03,46,17.20
2009,07,12,03,47,17.20
2009,07,12,03,48,17.10
2009,07,12,03,49,17.10
2009,07,12,03,50,17.00
2009,07,12,03,51,17.00
2009,07,12,03,52,17.00
2009,07,12,03,53,16.90
2009,07,12,03,54,16.90
2009,07,12,03,55,16.90
2009,07,12,03,56,16.90
2009,07,12,03,57,17.00
2009,07,12,03,58,17.00
2009,07,12,03,59,17.00
2009,07,12,04,00,16.90
2009,07,12,04,01,16.90
2009,07,12,04,02,16.90
2009,07,12,04,03,16.90
2009,07,12,04,04,16.90
2009,07,12,04,05,16.90
2009,07,12,04,06,16.90
2009,07,12,04,07,16.90
2009,07,12,04,08,16.90
2009,07,12,04,09,16.90
2009,07,12,04,10,16.80
2009,07,12,04,11,16.80
2009,07,12,04,12,16.70
2009,07,12,04,13,16.60
2009,07,12,04,14,16.50
2009,07,12,04,15,16.40
2009,07,12,04,16,16.30
2009,07,12,04,17,16.20
2009,07,12,04,18,16.20
2009,07,12,04,19,16.10
2009,07,12,04,20,16.10
2009,07,12,04,21,16.00
2009,07,12,04,22,15.90
2009,07,12,04,23,15.90
2009,07,12,04,24,15.80
2009,07,12,04,25,15.80
2009,07,12,04,26,15.80
2009,07,12,04,27,15.80
2009,07,12,04,28,15.80
2009,07,12,04,29,15.70
2009,07,12,04,30,15.70
2009,07,12,04,31,15.60
2009,07,12,04,32,15.60
2009,07,12,04,33,15.60
2009,07,12,04,34,15.60
2009,07,12,04,35,15.60
2009,07,12,04,36,15.60
2009,07,12,04,37,15.50
2009,07,12,04,38,15.50
2009,07,12,04,39,15.50
2009,07,12,04,40,15.50
2009,07,12,04,41,15.50
2009,07,12,04,42,15.50
2009,07,12,04,43,15.50
2009,07,12,04,44,15.50
2009,07,12,04,45,15.50
2009,07,12,04,46,15.50
2009,07,12,04,47,15.40
2009,07,12,04,48,15.40
2009,07,12,04,49,15.30
2009,07,12,04,50,15.30
2009,07,12,04,51,15.30
2009,07,12,04,52,15.30
2009,07,12,04,53,15.20
2009,07,12,04,54,15.20
2009,07,12,04,55,15.10
2009,07,12,04,56,15.10
2009,07,12,04,57,15.10
2009,07,12,04,58,15.00
2009,07,12,04,59,15.00
2009,07,12,05,00,14.90
2009,07,12,05,01,14.90
2009,07,12,05,02,14.90
2009,07,12,05,03,14.80
2009,07,12,05,04,14.80
2009,07,12,05,05,14.80
2009,07,12,05,06,14.70
2009,07,12,05,07,14.70
2009,07,12,05,08,14.60
2009,07,12,05,09,14.60
2009,07,12,05,10,14.60
2009,07,12,05,11,14.50
2009,07,12,05,12,14.50
2009,07,12,05,13,14.50
2009,07,12,05,14,14.50
2009,07,12,05,15,14.40
2009,07,12,05,16,14.40
2009,07,12,05,17,14.40
2009,07,12,05,18,14.40
2009,07,12,05,19,14.40
2009,07,12,05,20,14.40
2009,07,12,05,21,14.40
2009,07,12,05,22,14.40
2009,07,12,05,23,14.40
2009,07,12,05,24,14.40
2009,07,12,05,25,14.30
2009,07,12,05,26,14.30
2009,07,12,05,27,14.30
2009,07,12,05,28,14.40
2009,07,12,05,29,14.40
2009,07,12,05,30,14.40
2009,07,12,05,31,14.40
2009,07,12,05,32,14.40
2009,07,12,05,33,14.40
2009,07,12,05,34,14.40
2009,07,12,05,35,14.40
2009,07,12,05,36,14.40
2009,07,12,05,37,14.40
2009,07,12,05,38,14.40
2009,07,12,05,39,14.40
2009,07,12,05,40,14.40
2009,07,12,05,41,14.50
2009,07,12,05,42,14.50
2009,07,12,05,43,14.60
2009,07,12,05,44,14.60
2009,07,12,05,45,14.70
2009,07,12,05,46,14.70
2009,07,12,05,47,14.70
2009,07,12,05,48,14.70
2009,07,12,05,49,14.70
2009,07,12,05,50,14.70
2009,07,12,05,51,14.70
2009,07,12,05,52,14.70
2009,07,12,05,53,14.70
2009,07,12,05,54,14.70
2009,07,12,05,55,14.70
2009,07,12,05,56,14.70
2009,07,12,05,57,14.60
2009,07,12,05,58,14.60
2009,07,12,05,59,14.60
2009,07,12,06,00,14.60
2009,07,12,06,01,14.60
2009,07,12,06,02,14.60
2009,07,12,06,03,14.60
2009,07,12,06,04,14.60
2009,07,12,06,05,14.60
2009,07,12,06,06,14.60
2009,07,12,06,07,14.60
2009,07,12,06,08,14.60
2009,07,12,06,09,14.60
2009,07,12,06,10,14.60
2009,07,12,06,11,14.60
2009,07,12,06,12,14.70
2009,07,12,06,13,14.70
2009,07,12,06,14,14.80
2009,07,12,06,15,14.80
2009,07,12,06,16,14.90
2009,07,12,06,17,15.00
2009,07,12,06,18,15.00
2009,07,12,06,19,15.10
2009,07,12,06,20,15.10
2009,07,12,06,21,15.20
2009,07,12,06,22,15.30
2009,07,12,06,23,15.30
2009,07,12,06,24,15.30
2009,07,12,06,25,15.30
2009,07,12,06,26,15.30
2009,07,12,06,27,15.40
2009,07,12,06,28,15.40
2009,07,12,06,29,15.50
2009,07,12,06,30,15.50
2009,07,12,06,31,15.60
2009,07,12,06,32,15.60
2009,07,12,06,33,15.60
2009,07,12,06,34,15.70
2009,07,12,06,35,15.70
2009,07,12,06,36,15.80
2009,07,12,06,37,15.80
2009,07,12,06,38,15.80
2009,07,12,06,39,15.80
2009,07,12,06,40,15.80
2009,07,12,06,41,15.80
2009,07,12,06,42,15.80
2009,07,12,06,43,15.80
2009,07,12,06,44,15.80
2009,07,12,06,45,15.80
2009,07,12,06,46,15.80
2009,07,12,06,47,15.80
2009,07,12,06,48,15.80
2009,07,12,06,49,15.80
2009,07,12,06,50,15.80
2009,07,12,06,51,15.80
2009,07,12,06,52,15.80
2009,07,12,06,53,15.80
2009,07,12,06,54,15.80
2009,07,12,06,55,15.80
2009,07,12,06,56,15.80
2009,07,12,06,57,15.80
2009,07,12,06,58,15.80
2009,07,12,06,59,15.80
2009,07,12,07,00,15.80
2009,07,12,07,01,15.90
2009,07,12,07,02,15.90
2009,07,12,07,03,16.10
2009,07,12,07,04,16.10
2009,07,12,07,05,16.10
2009,07,12,07,06,16.10
2009,07,12,07,07,16.10
2009,07,12,07,08,16.10
2009,07,12,07,09,16.10
2009,07,12,07,10,16.10
2009,07,12,07,11,16.10
2009,07,12,07,12,16.10
2009,07,12,07,13,16.10
2009,07,12,07,14,15.90
2009,07,12,07,15,15.80
2009,07,12,07,16,15.80
2009,07,12,07,17,15.80
2009,07,12,07,18,15.80
2009,07,12,07,19,15.80
2009,07,12,07,20,15.80
2009,07,12,07,21,15.80
2009,07,12,07,22,15.80
2009,07,12,07,23,15.80
2009,07,12,07,24,15.80
2009,07,12,07,25,15.80
2009,07,12,07,26,15.80
2009,07,12,07,27,15.80
2009,07,12,07,28,15.80
2009,07,12,07,29,15.80
2009,07,12,07,30,15.80
2009,07,12,07,31,15.80
2009,07,12,07,32,15.80
2009,07,12,07,33,15.80
2009,07,12,07,34,15.80
2009,07,12,07,35,15.90
2009,07,12,07,36,16.00
2009,07,12,07,37,16.10
2009,07,12,07,38,16.10
2009,07,12,07,39,16.10
2009,07,12,07,40,16.10
2009,07,12,07,41,16.10
2009,07,12,07,42,16.20
2009,07,12,07,43,16.20
2009,07,12,07,44,16.30
2009,07,12,07,45,16.40
2009,07,12,07,46,16.40
2009,07,12,07,47,16.40
2009,07,12,07,48,16.40
2009,07,12,07,49,16.50
2009,07,12,07,50,16.60
2009,07,12,07,51,16.60
2009,07,12,07,52,16.70
2009,07,12,07,53,16.70
2009,07,12,07,54,16.70
2009,07,12,07,55,16.80
2009,07,12,07,56,16.90
2009,07,12,07,57,16.90
2009,07,12,07,58,17.00
2009,07,12,07,59,17.00
2009,07,12,08,00,17.10
2009,07,12,08,01,17.20
2009,07,12,08,02,17.20
2009,07,12,08,03,17.30
2009,07,12,08,04,17.40
2009,07,12,08,05,17.50
2009,07,12,08,06,17.50
2009,07,12,08,07,17.60
2009,07,12,08,08,17.70
2009,07,12,08,09,17.70
2009,07,12,08,10,17.80
2009,07,12,08,11,17.80
2009,07,12,08,12,17.90
2009,07,12,08,13,17.90
2009,07,12,08,14,17.90
2009,07,12,08,15,17.90
2009,07,12,08,16,17.90
2009,07,12,08,17,18.10
2009,07,12,08,18,18.10
2009,07,12,08,19,18.20
2009,07,12,08,20,18.30
2009,07,12,08,21,18.40
2009,07,12,08,22,18.50
2009,07,12,08,23,18.60
2009,07,12,08,24,18.70
2009,07,12,08,25,18.70
2009,07,12,08,26,18.90
2009,07,12,08,27,19.00
2009,07,12,08,28,19.20
2009,07,12,08,29,19.30
2009,07,12,08,30,19.50
2009,07,12,08,31,19.60
2009,07,12,08,32,19.70
2009,07,12,08,33,19.80
2009,07,12,08,34,19.90
2009,07,12,08,35,19.80
2009,07,12,08,36,19.60
2009,07,12,08,37,19.40
2009,07,12,08,38,19.10
2009,07,12,08,39,18.90
2009,07,12,08,40,18.70
2009,07,12,08,41,18.50
2009,07,12,08,42,18.30
2009,07,12,08,43,18.20
2009,07,12,08,44,18.00
2009,07,12,08,45,17.90
2009,07,12,08,46,17.80
2009,07,12,08,47,17.70
2009,07,12,08,48,17.50
2009,07,12,08,49,17.50
2009,07,12,08,50,17.40
2009,07,12,08,51,17.30
2009,07,12,08,52,17.10
2009,07,12,08,53,17.00
2009,07,12,08,54,17.00
2009,07,12,08,55,17.00
2009,07,12,08,56,17.10
2009,07,12,08,57,17.10
2009,07,12,08,58,17.00
2009,07,12,08,59,17.00
2009,07,12,09,00,17.00
2009,07,12,09,01,17.00
2009,07,12,09,02,17.00
2009,07,12,09,03,17.10
2009,07,12,09,04,17.20
2009,07,12,09,05,17.30
2009,07,12,09,06,17.30
2009,07,12,09,07,17.40
2009,07,12,09,08,17.50
2009,07,12,09,09,17.50
2009,07,12,09,10,17.50
2009,07,12,09,11,17.50
2009,07,12,09,12,17.50
2009,07,12,09,13,17.50
2009,07,12,09,14,17.60
2009,07,12,09,15,17.60
2009,07,12,09,16,17.70
2009,07,12,09,17,17.70
2009,07,12,09,18,17.80
2009,07,12,09,19,17.80
2009,07,12,09,20,17.90
2009,07,12,09,21,17.90
2009,07,12,09,22,17.90
2009,07,12,09,23,18.00
2009,07,12,09,24,18.10
2009,07,12,09,25,18.20
2009,07,12,09,26,18.30
2009,07,12,09,27,18.40
2009,07,12,09,28,18.50
2009,07,12,09,29,18.70
2009,07,12,09,30,18.80
2009,07,12,09,31,18.90
2009,07,12,09,32,18.90
2009,07,12,09,33,18.90
2009,07,12,09,34,18.90
2009,07,12,09,35,18.90
2009,07,12,09,36,18.90
2009,07,12,09,37,18.90
2009,07,12,09,38,18.90
2009,07,12,09,39,19.00
2009,07,12,09,40,19.10
2009,07,12,09,41,19.10
2009,07,12,09,42,19.10
2009,07,12,09,43,19.10
2009,07,12,09,44,19.10
2009,07,12,09,45,19.10
2009,07,12,09,46,19.20
2009,07,12,09,47,19.20
2009,07,12,09,48,19.30
2009,07,12,09,49,19.30
2009,07,12,09,50,19.40
2009,07,12,09,51,19.50
2009,07,12,09,52,19.60
2009,07,12,09,53,19.60
2009,07,12,09,54,19.60
2009,07,12,09,55,19.60
2009,07,12,09,56,19.70
2009,07,12,09,57,19.80
2009,07,12,09,58,19.90
2009,07,12,09,59,19.90
2009,07,12,10,00,19.70
2009,07,12,10,01,19.50
2009,07,12,10,02,19.30
2009,07,12,10,03,19.30
2009,07,12,10,04,19.30
2009,07,12,10,05,19.20
2009,07,12,10,06,19.10
2009,07,12,10,07,19.10
2009,07,12,10,08,19.10
2009,07,12,10,09,18.90
2009,07,12,10,10,18.90
2009,07,12,10,11,18.80
2009,07,12,10,12,18.70
2009,07,12,10,13,18.70
2009,07,12,10,14,18.60
2009,07,12,10,15,18.50
2009,07,12,10,16,18.50
2009,07,12,10,17,18.50
2009,07,12,10,18,18.50
2009,07,12,10,19,18.60
2009,07,12,10,20,18.70
2009,07,12,10,21,18.80
2009,07,12,10,22,18.90
2009,07,12,10,23,18.90
2009,07,12,10,24,19.00
2009,07,12,10,25,19.10
2009,07,12,10,26,19.20
2009,07,12,10,27,19.20
2009,07,12,10,28,19.20
2009,07,12,10,29,19.30
2009,07,12,10,30,19.40
2009,07,12,10,31,19.40
2009,07,12,10,32,19.50
2009,07,12,10,33,19.60
2009,07,12,10,34,19.50
2009,07,12,10,35,19.50
2009,07,12,10,36,19.60
2009,07,12,10,37,19.60
2009,07,12,10,38,19.50
2009,07,12,10,39,19.40
2009,07,12,10,40,19.30
2009,07,12,10,41,19.30
2009,07,12,10,42,19.30
2009,07,12,10,43,19.30
2009,07,12,10,44,19.20
2009,07,12,10,45,19.00
2009,07,12,10,46,18.80
2009,07,12,10,47,18.70
2009,07,12,10,48,18.60
2009,07,12,10,49,18.50
2009,07,12,10,50,18.40
2009,07,12,10,51,18.40
2009,07,12,10,52,18.30
2009,07,12,10,53,18.30
2009,07,12,10,54,18.30
2009,07,12,10,55,18.20
2009,07,12,10,56,18.20
2009,07,12,10,57,18.20
2009,07,12,10,58,18.10
2009,07,12,10,59,18.10
2009,07,12,11,00,18.00
2009,07,12,11,01,17.90
2009,07,12,11,02,17.70
2009,07,12,11,03,17.60
2009,07,12,11,04,17.50
2009,07,12,11,05,17.30
2009,07,12,11,06,17.30
2009,07,12,11,07,17.20
2009,07,12,11,08,17.10
2009,07,12,11,09,17.10
2009,07,12,11,10,17.10
2009,07,12,11,11,17.00
2009,07,12,11,12,17.00
2009,07,12,11,13,16.90
2009,07,12,11,14,16.90
2009,07,12,11,15,16.90
2009,07,12,11,16,16.90
2009,07,12,11,17,16.90
2009,07,12,11,18,16.90
2009,07,12,11,19,16.90
2009,07,12,11,20,17.00
2009,07,12,11,21,17.00
2009,07,12,11,22,17.00
2009,07,12,11,23,17.20
2009,07,12,11,24,17.20
2009,07,12,11,25,17.00
2009,07,12,11,26,16.90
2009,07,12,11,27,16.80
2009,07,12,11,28,16.80
2009,07,12,11,29,16.80
2009,07,12,11,30,16.70
2009,07,12,11,31,16.70
2009,07,12,11,32,16.70
2009,07,12,11,33,16.70
2009,07,12,11,34,16.70
2009,07,12,11,35,16.70
2009,07,12,11,36,16.70
2009,07,12,11,37,16.80
2009,07,12,11,38,16.80
2009,07,12,11,39,16.90
2009,07,12,11,40,17.00
2009,07,12,11,41,17.00
2009,07,12,11,42,17.20
2009,07,12,11,43,17.30
2009,07,12,11,44,17.30
2009,07,12,11,45,17.30
2009,07,12,11,46,17.40
2009,07,12,11,47,17.40
2009,07,12,11,48,17.50
2009,07,12,11,49,17.50
2009,07,12,11,50,17.60
2009,07,12,11,51,17.60
2009,07,12,11,52,17.60
2009,07,12,11,53,17.70
2009,07,12,11,54,17.70
2009,07,12,11,55,17.70
2009,07,12,11,56,17.80
2009,07,12,11,57,17.90
2009,07,12,11,58,17.90
2009,07,12,11,59,18.10
2009,07,12,12,00,18.20
2009,07,12,12,01,18.30
2009,07,12,12,02,18.50
2009,07,12,12,03,18.60
2009,07,12,12,04,18.60
2009,07,12,12,05,18.70
2009,07,12,12,06,18.80
2009,07,12,12,07,18.90
2009,07,12,12,08,19.00
2009,07,12,12,09,19.10
2009,07,12,12,10,19.20
2009,07,12,12,11,19.40
2009,07,12,12,12,19.60
2009,07,12,12,13,19.70
2009,07,12,12,14,19.70
2009,07,12,12,15,19.80
2009,07,12,12,16,19.80
2009,07,12,12,17,19.90
2009,07,12,12,18,20.10
2009,07,12,12,19,20.20
2009,07,12,12,20,20.20
2009,07,12,12,21,20.20
2009,07,12,12,22,20.20
2009,07,12,12,23,20.40
2009,07,12,12,24,20.50
2009,07,12,12,25,20.50
2009,07,12,12,26,20.50
2009,07,12,12,27,20.60
2009,07,12,12,28,20.70
2009,07,12,12,29,20.80
2009,07,12,12,30,21.00
2009,07,12,12,31,21.10
2009,07,12,12,32,21.20
2009,07,12,12,33,21.20
2009,07,12,12,34,21.30
2009,07,12,12,35,21.40
2009,07,12,12,36,21.40
2009,07,12,12,37,21.40
2009,07,12,12,38,21.30
2009,07,12,12,39,21.30
2009,07,12,12,40,21.30
2009,07,12,12,41,21.10
2009,07,12,12,42,21.00
2009,07,12,12,43,20.90
2009,07,12,12,44,20.90
2009,07,12,12,45,20.90
2009,07,12,12,46,20.90
2009,07,12,12,47,20.90
2009,07,12,12,48,20.90
2009,07,12,12,49,21.00
2009,07,12,12,50,21.00
2009,07,12,12,51,21.10
2009,07,12,12,52,21.20
2009,07,12,12,53,21.30
2009,07,12,12,54,21.30
2009,07,12,12,55,21.30
2009,07,12,12,56,21.30
2009,07,12,12,57,21.30
2009,07,12,12,58,21.30
2009,07,12,12,59,21.30
2009,07,12,13,00,21.30
2009,07,12,13,01,21.40
2009,07,12,13,02,21.60
2009,07,12,13,03,21.70
2009,07,12,13,04,21.70
2009,07,12,13,05,21.60
2009,07,12,13,06,21.60
2009,07,12,13,07,21.60
2009,07,12,13,08,21.70
2009,07,12,13,09,21.70
2009,07,12,13,10,21.70
2009,07,12,13,11,21.70
2009,07,12,13,12,21.60
2009,07,12,13,13,21.60
2009,07,12,13,14,21.60
2009,07,12,13,15,21.60
2009,07,12,13,16,21.60
2009,07,12,13,17,21.40
2009,07,12,13,18,21.30
2009,07,12,13,19,21.20
2009,07,12,13,20,21.00
2009,07,12,13,21,21.00
2009,07,12,13,22,20.90
2009,07,12,13,23,20.70
2009,07,12,13,24,20.70
2009,07,12,13,25,20.60
2009,07,12,13,26,20.50
2009,07,12,13,27,20.40
2009,07,12,13,28,20.30
2009,07,12,13,29,20.30
2009,07,12,13,30,20.30
2009,07,12,13,31,20.30
2009,07,12,13,32,20.30
2009,07,12,13,33,20.20
2009,07,12,13,34,20.20
2009,07,12,13,35,20.20
2009,07,12,13,36,20.10
2009,07,12,13,37,20.00
2009,07,12,13,38,19.90
2009,07,12,13,39,19.90
2009,07,12,13,40,19.90
2009,07,12,13,41,19.90
2009,07,12,13,42,19.90
2009,07,12,13,43,19.90
2009,07,12,13,44,19.90
2009,07,12,13,45,19.90
2009,07,12,13,46,19.90
2009,07,12,13,47,19.90
2009,07,12,13,48,19.90
2009,07,12,13,49,19.90
2009,07,12,13,50,19.90
2009,07,12,13,51,20.00
2009,07,12,13,52,20.10
2009,07,12,13,53,20.10
2009,07,12,13,54,20.10
2009,07,12,13,55,20.00
2009,07,12,13,56,19.90
2009,07,12,13,57,19.90
2009,07,12,13,58,19.90
2009,07,12,13,59,19.80
2009,07,12,14,00,19.70
2009,07,12,14,01,19.70
2009,07,12,14,02,19.60
2009,07,12,14,03,19.60
2009,07,12,14,04,19.50
2009,07,12,14,05,19.40
2009,07,12,14,06,19.30
2009,07,12,14,07,19.30
2009,07,12,14,08,19.30
2009,07,12,14,09,19.30
2009,07,12,14,10,19.30
2009,07,12,14,11,19.40
2009,07,12,14,12,19.40
2009,07,12,14,13,19.40
2009,07,12,14,14,19.40
2009,07,12,14,15,19.40
2009,07,12,14,16,19.40
2009,07,12,14,17,19.30
2009,07,12,14,18,19.30
2009,07,12,14,19,19.40
2009,07,12,14,20,19.50
2009,07,12,14,21,19.50
2009,07,12,14,22,19.50
2009,07,12,14,23,19.50
2009,07,12,14,24,19.50
2009,07,12,14,25,19.50
2009,07,12,14,26,19.50
2009,07,12,14,27,19.50
2009,07,12,14,28,19.40
2009,07,12,14,29,19.40
2009,07,12,14,30,19.50
2009,07,12,14,31,19.50
2009,07,12,14,32,19.50
2009,07,12,14,33,19.50
2009,07,12,14,34,19.40
2009,07,12,14,35,19.40
2009,07,12,14,36,19.50
2009,07,12,14,37,19.50
2009,07,12,14,38,19.50
2009,07,12,14,39,19.50
2009,07,12,14,40,19.60
2009,07,12,14,41,19.70
2009,07,12,14,42,19.80
2009,07,12,14,43,19.80
2009,07,12,14,44,19.80
2009,07,12,14,45,19.80
2009,07,12,14,46,19.80
2009,07,12,14,47,19.80
2009,07,12,14,48,19.80
2009,07,12,14,49,19.80
2009,07,12,14,50,19.70
2009,07,12,14,51,19.60
2009,07,12,14,52,19.60
2009,07,12,14,53,19.50
2009,07,12,14,54,19.60
2009,07,12,14,55,19.70
2009,07,12,14,56,19.70
2009,07,12,14,57,19.70
2009,07,12,14,58,19.70
2009,07,12,14,59,19.70
2009,07,12,15,00,19.70
2009,07,12,15,01,19.70
2009,07,12,15,02,19.80
2009,07,12,15,03,19.80
2009,07,12,15,04,19.80
2009,07,12,15,05,19.90
2009,07,12,15,06,19.90
2009,07,12,15,07,19.90
2009,07,12,15,08,19.90
2009,07,12,15,09,20.00
2009,07,12,15,10,20.10
2009,07,12,15,11,20.20
2009,07,12,15,12,20.30
2009,07,12,15,13,20.30
2009,07,12,15,14,20.40
2009,07,12,15,15,20.40
2009,07,12,15,16,20.50
2009,07,12,15,17,20.50
2009,07,12,15,18,20.40
2009,07,12,15,19,20.40
2009,07,12,15,20,20.40
2009,07,12,15,21,20.40
2009,07,12,15,22,20.50
2009,07,12,15,23,20.60
2009,07,12,15,24,20.60
2009,07,12,15,25,20.60
2009,07,12,15,26,20.70
2009,07,12,15,27,20.70
2009,07,12,15,28,20.80
2009,07,12,15,29,20.70
2009,07,12,15,30,20.60
2009,07,12,15,31,20.60
2009,07,12,15,32,20.70
2009,07,12,15,33,20.70
2009,07,12,15,34,20.70
2009,07,12,15,35,20.70
2009,07,12,15,36,20.70
2009,07,12,15,37,20.70
2009,07,12,15,38,20.60
2009,07,12,15,39,20.60
2009,07,12,15,40,20.50
2009,07,12,15,41,20.50
2009,07,12,15,42,20.60
2009,07,12,15,43,20.70
2009,07,12,15,44,20.70
2009,07,12,15,45,20.80
2009,07,12,15,46,20.80
2009,07,12,15,47,20.80
2009,07,12,15,48,20.80
2009,07,12,15,49,20.90
2009,07,12,15,50,20.90
2009,07,12,15,51,20.90
2009,07,12,15,52,20.90
2009,07,12,15,53,20.80
2009,07,12,15,54,20.80
2009,07,12,15,55,20.90
2009,07,12,15,56,20.90
2009,07,12,15,57,21.00
2009,07,12,15,58,21.00
2009,07,12,15,59,21.10
2009,07,12,16,00,21.30
2009,07,12,16,01,21.30
2009,07,12,16,02,21.30
2009,07,12,16,03,21.30
2009,07,12,16,04,21.30
2009,07,12,16,05,21.40
2009,07,12,16,06,21.40
2009,07,12,16,07,21.50
2009,07,12,16,08,21.60
2009,07,12,16,09,21.60
2009,07,12,16,10,21.60
2009,07,12,16,11,21.60
2009,07,12,16,12,21.60
2009,07,12,16,13,21.70
2009,07,12,16,14,21.70
2009,07,12,16,15,21.80
2009,07,12,16,16,21.80
2009,07,12,16,17,21.80
2009,07,12,16,18,21.80
2009,07,12,16,19,21.80
2009,07,12,16,20,21.80
2009,07,12,16,21,21.80
2009,07,12,16,22,21.80
2009,07,12,16,23,21.80
2009,07,12,16,24,21.80
2009,07,12,16,25,21.80
2009,07,12,16,26,21.80
2009,07,12,16,27,21.80
2009,07,12,16,28,21.90
2009,07,12,16,29,21.90
2009,07,12,16,30,21.90
2009,07,12,16,31,21.90
2009,07,12,16,32,21.90
2009,07,12,16,33,21.90
2009,07,12,16,34,21.90
2009,07,12,16,35,21.90
2009,07,12,16,36,21.80
2009,07,12,16,37,21.80
2009,07,12,16,38,21.70
2009,07,12,16,39,21.70
2009,07,12,16,40,21.70
2009,07,12,16,41,21.70
2009,07,12,16,42,21.70
2009,07,12,16,43,21.70
2009,07,12,16,44,21.60
2009,07,12,16,45,21.60
2009,07,12,16,46,21.60
2009,07,12,16,47,21.60
2009,07,12,16,48,21.60
2009,07,12,16,49,21.60
2009,07,12,16,50,21.60
2009,07,12,16,51,21.60
2009,07,12,16,52,21.70
2009,07,12,16,53,21.70
2009,07,12,16,54,21.70
2009,07,12,16,55,21.70
2009,07,12,16,56,21.70
2009,07,12,16,57,21.70
2009,07,12,16,58,21.70
2009,07,12,16,59,21.70
2009,07,12,17,00,21.70
2009,07,12,17,01,21.70
2009,07,12,17,02,21.70
2009,07,12,17,03,21.70
2009,07,12,17,04,21.70
2009,07,12,17,05,21.70
2009,07,12,17,06,21.70
2009,07,12,17,07,21.70
2009,07,12,17,08,21.80
2009,07,12,17,09,21.80
2009,07,12,17,10,21.80
2009,07,12,17,11,21.80
2009,07,12,17,12,21.80
2009,07,12,17,13,21.80
2009,07,12,17,14,21.80
2009,07,12,17,15,21.80
2009,07,12,17,16,21.80
2009,07,12,17,17,21.80
2009,07,12,17,18,21.80
2009,07,12,17,19,21.80